When you browse on this site, cookies collect data to enhance your experience and personalize the content and advertising you see.
Visit our Privacy Policy to learn more. By continuing to use the site, you agree to this use of cookies and data.
  • In Portugal
  • List of Countries
  • For 7 days
  • Water Temperature
  • Weather Map
  • Weather Widgets
  • user-avatar
    Login

    Hourly Weather Baronskaya

    Today, 26 May, Tuesday

    Time Temperature Precipitation Wind Pressure Humidity
    00:00 +7°C° 0 mm 4 mps 748 mmHg 92%
    01:00 +8°C° 0 mm 3 mps 749 mmHg 91%
    02:00 +7°C° 0 mm 3 mps 749 mmHg 93%
    03:00 +7°C° 0 mm 2 mps 750 mmHg 95%
    04:00 +6°C° 0 mm 2 mps 751 mmHg 97%
    05:00 +8°C° 0 mm 2 mps 751 mmHg 91%
    06:00 +9°C° 0 mm 2 mps 751 mmHg 86%
    07:00 +12°C° 0 mm 2 mps 751 mmHg 80%
    08:00 +14°C° 0 mm 2 mps 752 mmHg 72%
    09:00 +15°C° 0 mm 2 mps 752 mmHg 64%
    10:00 +17°C° 0 mm 2 mps 752 mmHg 56%
    11:00 +18°C° 0 mm 2 mps 752 mmHg 53%
    12:00 +18°C° 0 mm 2 mps 752 mmHg 50%
    13:00 +19°C° 0 mm 2 mps 752 mmHg 48%
    14:00 +19°C° 0 mm 2 mps 752 mmHg 48%
    15:00 +19°C° 0 mm 2 mps 753 mmHg 49%
    16:00 +20°C° 0 mm 1 mps 753 mmHg 49%
    17:00 +19°C° 0 mm 1 mps 753 mmHg 55%
    18:00 +18°C° 0 mm 1 mps 753 mmHg 61%
    19:00 +18°C° 0 mm 1 mps 753 mmHg 67%
    20:00 +15°C° 0 mm 1 mps 753 mmHg 71%
    21:00 +14°C° 0 mm 1 mps 753 mmHg 75%
    22:00 +12°C° 0 mm 2 mps 753 mmHg 79%
    23:00 +12°C° 0 mm 2 mps 753 mmHg 83%

    Tomorrow, 27 May, Wednesday

    Time Temperature Precipitation Wind Pressure Humidity
    00:00 +10°C° 0 mm 2 mps 753 mmHg 87%
    01:00 +9°C° 0 mm 2 mps 753 mmHg 92%
    02:00 +9°C° 0 mm 2 mps 752 mmHg 92%
    03:00 +9°C° 0 mm 2 mps 752 mmHg 93%
    04:00 +9°C° 0 mm 2 mps 752 mmHg 94%
    05:00 +11°C° 0 mm 3 mps 752 mmHg 86%
    06:00 +13°C° 0 mm 3 mps 751 mmHg 78%
    07:00 +14°C° 0 mm 4 mps 751 mmHg 69%
    08:00 +17°C° 0 mm 4 mps 751 mmHg 65%
    09:00 +18°C° 0 mm 4 mps 750 mmHg 60%
    10:00 +19°C° 0 mm 5 mps 750 mmHg 56%
    11:00 +20°C° 0 mm 5 mps 749 mmHg 54%
    12:00 +21°C° 0 mm 5 mps 749 mmHg 51%
    13:00 +22°C° 0 mm 5 mps 748 mmHg 49%
    14:00 +22°C° 0 mm 5 mps 747 mmHg 50%
    15:00 +22°C° 0 mm 5 mps 747 mmHg 51%
    16:00 +22°C° 0 mm 6 mps 746 mmHg 53%
    17:00 +21°C° 0.1 mm 5 mps 745 mmHg 59%
    18:00 +20°C° 0.1 mm 4 mps 745 mmHg 66%
    19:00 +19°C° 0.1 mm 3 mps 744 mmHg 72%
    20:00 +18°C° 0 mm 3 mps 744 mmHg 76%
    21:00 +17°C° 0 mm 3 mps 743 mmHg 80%
    22:00 +16°C° 0 mm 3 mps 743 mmHg 85%
    23:00 +16°C° 0 mm 3 mps 743 mmHg 83%

    Day after tomorrow, 28 May, Thursday

    Time Temperature Precipitation Wind Pressure Humidity
    00:00 +17°C° 0 mm 3 mps 742 mmHg 82%
    01:00 +17°C° 0 mm 3 mps 741 mmHg 80%
    02:00 +17°C° 0.1 mm 3 mps 741 mmHg 83%
    03:00 +16°C° 0.1 mm 3 mps 741 mmHg 85%
    04:00 +16°C° 0.1 mm 3 mps 741 mmHg 88%
    05:00 +17°C° 0.1 mm 3 mps 740 mmHg 87%
    06:00 +18°C° 0.1 mm 4 mps 740 mmHg 87%
    07:00 +19°C° 0.1 mm 4 mps 740 mmHg 86%
    08:00 +20°C° 0.1 mm 4 mps 740 mmHg 84%
    09:00 +21°C° 0.1 mm 5 mps 740 mmHg 81%
    10:00 +21°C° 0.1 mm 5 mps 741 mmHg 78%
    11:00 +21°C° 0.2 mm 5 mps 741 mmHg 79%
    12:00 +20°C° 0.2 mm 5 mps 741 mmHg 79%
    13:00 +19°C° 0.2 mm 4 mps 741 mmHg 80%
    14:00 +19°C° 0.1 mm 4 mps 741 mmHg 76%
    15:00 +19°C° 0.1 mm 5 mps 742 mmHg 72%
    16:00 +19°C° 0.1 mm 5 mps 742 mmHg 69%
    17:00 +18°C° 0 mm 4 mps 742 mmHg 71%
    18:00 +17°C° 0 mm 4 mps 743 mmHg 73%
    19:00 +15°C° 0 mm 4 mps 743 mmHg 75%
    20:00 +13°C° 0 mm 3 mps 743 mmHg 81%
    21:00 +12°C° 0 mm 2 mps 743 mmHg 87%
    22:00 +9°C° 0 mm 2 mps 744 mmHg 93%
    23:00 +9°C° 0 mm 2 mps 744 mmHg 94%

    29 May, Friday

    Time Temperature Precipitation Wind Pressure Humidity
    00:00 +10°C° 0 mm 1 mps 744 mmHg 94%
    01:00 +9°C° 0 mm 1 mps 744 mmHg 95%
    02:00 +9°C° 0 mm 1 mps 744 mmHg 95%
    03:00 +9°C° 0 mm 1 mps 744 mmHg 95%
    04:00 +8°C° 0 mm 2 mps 744 mmHg 96%
    05:00 +10°C° 0 mm 2 mps 744 mmHg 88%
    06:00 +12°C° 0 mm 3 mps 745 mmHg 79%
    07:00 +14°C° 0 mm 3 mps 745 mmHg 71%
    08:00 +17°C° 0 mm 3 mps 745 mmHg 64%
    09:00 +18°C° 0 mm 4 mps 745 mmHg 57%
    10:00 +19°C° 0 mm 4 mps 745 mmHg 50%
    11:00 +20°C° 0 mm 4 mps 745 mmHg 48%
    12:00 +21°C° 0 mm 5 mps 745 mmHg 46%
    13:00 +21°C° 0 mm 5 mps 745 mmHg 44%
    14:00 +21°C° 0 mm 5 mps 745 mmHg 44%
    15:00 +21°C° 0 mm 4 mps 745 mmHg 44%
    16:00 +21°C° 0 mm 4 mps 745 mmHg 44%
    17:00 +20°C° 0 mm 4 mps 745 mmHg 50%
    18:00 +19°C° 0 mm 3 mps 745 mmHg 57%
    19:00 +18°C° 0 mm 2 mps 745 mmHg 63%
    20:00 +16°C° 0 mm 2 mps 745 mmHg 69%
    21:00 +14°C° 0 mm 1 mps 745 mmHg 74%
    22:00 +13°C° 0 mm 1 mps 745 mmHg 80%
    23:00 +12°C° 0 mm 1 mps 746 mmHg 81%

    30 May, Saturday

    Time Temperature Precipitation Wind Pressure Humidity
    00:00 +11°C° 0 mm 1 mps 746 mmHg 83%
    01:00 +10°C° 0 mm 0 mps 746 mmHg 85%
    02:00 +9°C° 0 mm 0 mps 746 mmHg 84%
    03:00 +9°C° 0 mm 0 mps 746 mmHg 83%
    04:00 +9°C° 0 mm 0 mps 746 mmHg 82%
    05:00 +12°C° 0 mm 0 mps 746 mmHg 73%
    06:00 +14°C° 0 mm 0 mps 746 mmHg 65%
    07:00 +17°C° 0 mm 0 mps 747 mmHg 57%
    08:00 +18°C° 0 mm 0 mps 746 mmHg 51%
    09:00 +20°C° 0 mm 0 mps 746 mmHg 46%
    10:00 +24°C° 0 mm 1 mps 746 mmHg 41%
    11:00 +23°C° 0 mm 0 mps 746 mmHg 39%
    12:00 +24°C° 0 mm 0 mps 745 mmHg 37%
    13:00 +25°C° 0 mm 0 mps 745 mmHg 35%
    14:00 +27°C° 0 mm 1 mps 745 mmHg 36%
    15:00 +26°C° 0 mm 1 mps 744 mmHg 37%
    16:00 +26°C° 0 mm 1 mps 744 mmHg 37%
    17:00 +25°C° 0 mm 1 mps 743 mmHg 44%
    18:00 +24°C° 0 mm 1 mps 743 mmHg 51%
    19:00 +22°C° 0 mm 1 mps 742 mmHg 59%
    20:00 +20°C° 0 mm 1 mps 742 mmHg 64%
    21:00 +18°C° 0 mm 1 mps 742 mmHg 69%
    22:00 +14°C° 0 mm 0 mps 741 mmHg 74%
    23:00 +13°C° 0 mm 0 mps 741 mmHg 76%

    31 May, Sunday

    Time Temperature Precipitation Wind Pressure Humidity
    00:00 +13°C° 0 mm 0 mps 740 mmHg 78%
    01:00 +12°C° 0 mm 0 mps 740 mmHg 80%
    02:00 +12°C° 0 mm 0 mps 739 mmHg 81%
    03:00 +12°C° 0 mm 0 mps 739 mmHg 82%
    04:00 +11°C° 0 mm 0 mps 739 mmHg 83%
    05:00 +14°C° 0 mm 0 mps 739 mmHg 76%
    06:00 +16°C° 0 mm 0 mps 739 mmHg 69%
    07:00 +19°C° 0 mm 0 mps 739 mmHg 61%
    08:00 +21°C° 0 mm 1 mps 739 mmHg 61%
    09:00 +21°C° 0 mm 2 mps 738 mmHg 60%
    10:00 +22°C° 0 mm 3 mps 738 mmHg 59%
    11:00 +20°C° 0.2 mm 3 mps 738 mmHg 66%
    12:00 +18°C° 0.2 mm 3 mps 738 mmHg 72%
    13:00 +15°C° 0.2 mm 4 mps 738 mmHg 78%
    14:00 +14°C° 1.1 mm 3 mps 738 mmHg 83%
    15:00 +14°C° 1.1 mm 3 mps 738 mmHg 88%
    16:00 +13°C° 1.1 mm 3 mps 737 mmHg 92%
    17:00 +12°C° 0 mm 3 mps 737 mmHg 91%
    18:00 +12°C° 0 mm 3 mps 737 mmHg 89%
    19:00 +12°C° 0 mm 3 mps 737 mmHg 88%
    20:00 +11°C° 0.1 mm 3 mps 737 mmHg 87%
    21:00 +11°C° 0.1 mm 3 mps 737 mmHg 87%
    22:00 +10°C° 0.1 mm 2 mps 737 mmHg 87%
    23:00 +10°C° 0.1 mm 3 mps 737 mmHg 86%
    Show more